Погода в Пустыне

Россия / Архангельская область     64°30′29″N   48°29′30″E
темп.,
°C
ветер,
м/с
пор.,
м/с
влажн.,
%
обл.,
%
осадки,
мм/ч
давл.,
гПа
погр.,
м
24 января, пн
пн2400:00−14ю3109582 0.0 1023274
03:00−14ю41293100 0.0 1022343
06:00−13ююз41292100 0.0 1019420
09:00−11ю41292100 0.1 1018472
12:00−9ю51391100 0.3 1016467
15:00−7ююз51391100 0.4 1014595
18:00−5ююз51491100 0.1 1012637
21:00−3юз51490100 0.2 1010786
25 января, вт
вт2500:00−2юз61390100 0.2 10081007
03:00−3юз61489100 0.3 1007839
06:00−3юз51489100 0.1 1006745
09:00−4юз51293100 0.8 1005696
12:00−4юз51191100 0.4 1005638
15:00−4ююз41093100 0.8 1006538
18:00−5ююз3996100 0.7 1006471
21:00−5ююз3896100 1.6 1006394
26 января, ср
ср2600:00−6ююз3796100 1.2 1007310
03:00−6юз2696100 2.2 1007273
06:00−7зюз2497100 0.6 1008109
09:00−14з1110071 0.6 101026
12:00−13з139633 0.0 101193
15:00−17ююз119938 0.0 10129
18:00−20ююз1110059 0.0 101312
21:00−21ю1110095 0.0 101310
27 января, чт
чт2700:00−22ююв1110091 0.0 101312
03:00−23ююв1110061 0.0 101316
06:00−23юв2110028 0.0 101323
09:00−23юв2210045 0.0 101333
12:00−16ююв269415 0.0 1012140
15:00−17юв23977 0.0 101241
18:00−19юв249817 0.0 101368
21:00−20юв2310012 0.0 101350
28 января, пт
пт2800:00−20юв269998 0.0 101387
03:00−20юв2698100 0.0 1013110
06:00−19юв2797100 0.0 1013144
09:00−17юв2895100 0.0 1013180
12:00−14юв3992100 0.0 1013261
15:00−14юв399388 0.0 1013256
18:00−15юв3995100 0.0 1012277
21:00−15юв3995100 0.0 1012297